Location: Arthez
(43.0833°N, 0.2500°W)
Time: 08:25:11
(UTC+00:00)

CZ-4 R/B - Pass Details

Date: 23 October 2021
Orbit: 580 x 588 km, 97.7° (Epoch: 02 December)

Event Time Altitude Azimuth Distance (km) Brightness Sun altitude
Rises 18:18:12 0° 165° (SSE) 2,798 7.8 -13.9°
Reaches altitude 10° 18:20:21 10° 165° (SSE) 1,901 6.9 -14.3°
Maximum altitude 18:24:29 86° 78° (ENE) 592 4.4 -15.1°
Drops below altitude 10° 18:28:38 10° 348° (NNW) 1,912 7.2 -15.8°
Sets 18:30:48 0° 348° (NNW) 2,815 8.1 -16.2°
